Weather History for KLXN - December, 2013

Change the Weather History Date:

Saturday, December 14, 2013

  Actual Average Record
Temperature  
Mean Temperature 30 °F -  
Max Temperature 47 °F 39 °F 60 °F (2006)
Min Temperature 12 °F 16 °F 1 °F (2000)
Degree Days  
Heating Degree Days 36    
Moisture  
Dew Point 18 °F    
Average Humidity 73    
Maximum Humidity 90    
Minimum Humidity 38    
Precipitation  
Precipitation 0.00 in - - ()
Sea Level Pressure  
Sea Level Pressure 30.14 in    
Wind  
Wind Speed 10 mph (NW)    
Max Wind Speed 20 mph    
Max Gust Speed 23 mph    
Visibility 10 miles    
Events      
Averages and records for this station are not official NWS values.
T = Trace of Precipitation, MM = Missing Value Source: NWS Daily Summary

Daily Weather History Graph

Daily Weather History Graph

Search for Another Location

Airport or City:

Trip Planner

Search our weather history database for the weather conditions in past years. The results will help you decide how hot, cold, wet, or windy it might be!

Date:

Astronomy

Dec. 14, 2013 Rise Set
Actual Time 7:55 AM CST 5:12 PM CST
Civil Twilight 7:24 AM CST 5:43 PM CST
Nautical Twilight 6:50 AM CST 6:17 PM CST
Astronomical Twilight 6:16 AM CST 6:50 PM CST
Moon 3:35 PM CST (12/14) 5:17 AM CST (12/14)
Length of Visible Light 10h 18m
Length of Day
9h 16m
Waxing Gibbous, 94% of the Moon is Illuminated
Dec 14
Waxing Gibbous
Dec 17
Full
Dec 25
Last Quarter
Jan 1
New
Jan 7
First Quarter

Hourly Weather History & Observations

Time (CST) Temp. Windchill Dew Point Humidity Pressure Visibility Wind Dir Wind Speed Gust Speed Precip Events Conditions
12:15 AM 20.7 °F 7.6 °F 16.0 °F 82% 30.10 in 10.0 mi North 13.8 mph - N/A   Mostly Cloudy
12:35 AM 20.3 °F 8.3 °F 16.2 °F 84% 30.11 in 10.0 mi North 11.5 mph - N/A   Scattered Clouds
12:55 AM 20.3 °F 6.6 °F 16.3 °F 85% 30.12 in 10.0 mi North 15.0 mph 18.4 mph N/A   Overcast
1:15 AM 20.3 °F 5.7 °F 16.2 °F 84% 30.12 in 10.0 mi North 17.3 mph - N/A   Overcast
1:35 AM 19.9 °F 7.3 °F 15.8 °F 84% 30.12 in 10.0 mi North 12.7 mph - N/A   Overcast
1:55 AM 19.4 °F 6.6 °F 15.6 °F 85% 30.12 in 10.0 mi North 12.7 mph - N/A   Scattered Clouds
2:15 AM 18.3 °F 8.2 °F 14.9 °F 86% 30.13 in 10.0 mi North 8.1 mph 11.5 mph N/A   Scattered Clouds
2:35 AM 18.5 °F 8.4 °F 15.1 °F 86% 30.13 in 10.0 mi North 8.1 mph - N/A   Overcast
2:55 AM 18.5 °F 4.9 °F 15.4 °F 88% 30.13 in 10.0 mi North 13.8 mph - N/A   Overcast
3:15 AM 18.7 °F 8.6 °F 15.6 °F 88% 30.14 in 10.0 mi North 8.1 mph - N/A   Overcast
3:35 AM 19.0 °F 5.6 °F 15.8 °F 87% 30.15 in 10.0 mi North 13.8 mph - N/A   Overcast
3:55 AM 19.0 °F 7.5 °F 15.8 °F 87% 30.15 in 10.0 mi NNW 10.4 mph - N/A   Overcast
4:15 AM 18.1 °F 7.1 °F 14.5 °F 86% 30.15 in 10.0 mi NNW 9.2 mph - N/A   Mostly Cloudy
4:35 AM 16.3 °F 4.1 °F 13.5 °F 88% 30.16 in 10.0 mi NW 10.4 mph - N/A   Clear
4:55 AM 15.6 °F 5.9 °F 12.7 °F 88% 30.15 in 10.0 mi NW 6.9 mph - N/A   Clear
5:15 AM 14.7 °F 2.9 °F 12.2 °F 90% 30.16 in 10.0 mi NW 9.2 mph - N/A   Scattered Clouds
5:35 AM 15.1 °F 3.3 °F 12.7 °F 90% 30.16 in 10.0 mi NW 9.2 mph - N/A   Scattered Clouds
5:55 AM 15.1 °F 7.7 °F 12.2 °F 88% 30.16 in 7.0 mi NW 4.6 mph - N/A   Clear
6:15 AM 14.0 °F 3.9 °F 11.3 °F 89% 30.15 in 7.0 mi WNW 6.9 mph - N/A   Clear
6:35 AM 14.4 °F 4.3 °F 12.0 °F 90% 30.15 in 10.0 mi WNW 6.9 mph - N/A   Mostly Cloudy
6:55 AM 16.0 °F 10.4 °F 13.3 °F 89% 30.16 in 10.0 mi NW 3.5 mph - N/A   Overcast
7:15 AM 15.8 °F 5.1 °F 13.1 °F 89% 30.18 in 10.0 mi WNW 8.1 mph - N/A   Scattered Clouds
7:35 AM 14.4 °F 5.5 °F 11.7 °F 89% 30.17 in 10.0 mi West 5.8 mph - N/A   Clear
7:55 AM 12.9 °F - 10.2 °F 89% 30.18 in 7.0 mi Calm Calm - N/A   Clear
8:15 AM 12.7 °F 5.0 °F 10.4 °F 90% 30.19 in 7.0 mi West 4.6 mph - N/A   Clear
8:35 AM 14.0 °F 8.2 °F 11.5 °F 90% 30.19 in 7.0 mi West 3.5 mph - N/A   Clear
8:55 AM 17.8 °F 12.5 °F 14.9 °F 88% 30.18 in 10.0 mi West 3.5 mph - N/A   Scattered Clouds
9:15 AM 20.1 °F 11.3 °F 16.9 °F 87% 30.18 in 10.0 mi West 6.9 mph - N/A   Scattered Clouds
9:35 AM 24.3 °F 13.9 °F 20.1 °F 84% 30.18 in 10.0 mi WNW 10.4 mph - N/A   Clear
9:55 AM 26.6 °F 17.5 °F 21.4 °F 81% 30.19 in 10.0 mi WNW 9.2 mph - N/A   Clear
10:15 AM 29.5 °F 19.9 °F 23.2 °F 77% 30.19 in 10.0 mi WNW 11.5 mph - N/A   Clear
10:35 AM 32.0 °F 23.0 °F 25.0 °F 75% 30.19 in 10.0 mi WNW 11.5 mph - N/A   Clear
10:55 AM 34.0 °F 24.6 °F 25.7 °F 72% 30.19 in 10.0 mi WNW 13.8 mph - N/A   Clear
11:15 AM 35.4 °F 28.4 °F 26.4 °F 70% 30.18 in 10.0 mi WNW 9.2 mph - N/A   Clear
11:35 AM 38.5 °F 31.1 °F 27.5 °F 65% 30.18 in 10.0 mi NW 11.5 mph - N/A   Clear
11:55 AM 40.3 °F 33.4 °F 28.0 °F 62% 30.17 in 10.0 mi NW 11.5 mph - N/A   Clear
12:15 PM 43.0 °F 36.8 °F 27.7 °F 55% 30.16 in 10.0 mi NNW 11.5 mph - N/A   Clear
12:40 PM 45.0 °F 37.6 °F 25.7 °F 47% 30.15 in 10.0 mi NNW 17.3 mph 23.0 mph N/A   Clear
12:55 PM 44.8 °F 37.4 °F 25.3 °F 47% 30.14 in 10.0 mi North 17.3 mph 23.0 mph N/A   Clear
1:15 PM 46.0 °F 39.0 °F 24.6 °F 43% 30.14 in 10.0 mi NNW 17.3 mph - N/A   Clear
1:35 PM 46.4 °F 39.0 °F 23.5 °F 41% 30.13 in 10.0 mi NW 19.6 mph - N/A   Clear
1:55 PM 47.3 °F - 23.2 °F 39% 30.12 in 10.0 mi NNW 16.1 mph 23.0 mph N/A   Clear
2:15 PM 47.1 °F - 22.8 °F 38% 30.13 in 10.0 mi NNW 19.6 mph 23.0 mph N/A   Clear
2:40 PM 47.3 °F - 23.0 °F 38% 30.13 in 10.0 mi NNW 17.3 mph 21.9 mph N/A   Clear
2:55 PM 47.3 °F - 22.8 °F 38% 30.13 in 10.0 mi NW 18.4 mph - N/A   Clear
3:15 PM 46.9 °F - 23.0 °F 39% 30.13 in 10.0 mi NW 15.0 mph 20.7 mph N/A   Clear
3:35 PM 46.9 °F - 23.0 °F 39% 30.13 in 10.0 mi NW 12.7 mph - N/A   Clear
3:55 PM 46.4 °F 41.5 °F 23.0 °F 40% 30.14 in 10.0 mi NW 10.4 mph - N/A   Clear
4:15 PM 45.7 °F 41.5 °F 23.0 °F 41% 30.13 in 10.0 mi NW 8.1 mph - N/A   Clear
4:35 PM 43.9 °F 40.5 °F 23.0 °F 44% 30.13 in 10.0 mi NW 5.8 mph - N/A   Clear
4:55 PM 40.8 °F 36.9 °F 22.1 °F 47% 30.13 in 10.0 mi WNW 5.8 mph - N/A   Clear
5:15 PM 37.0 °F 31.6 °F 21.6 °F 54% 30.13 in 10.0 mi WNW 6.9 mph - N/A   Clear
5:35 PM 33.4 °F 28.1 °F 20.8 °F 60% 30.13 in 10.0 mi West 5.8 mph - N/A   Clear
5:55 PM 31.1 °F 26.4 °F 19.6 °F 62% 30.12 in 10.0 mi SW 4.6 mph - N/A   Clear
6:15 PM 31.6 °F 25.1 °F 20.7 °F 64% 30.12 in 10.0 mi SW 6.9 mph - N/A   Clear
6:35 PM 30.6 °F 24.7 °F 20.3 °F 66% 30.12 in 10.0 mi West 5.8 mph - N/A   Clear
6:55 PM 29.1 °F 25.4 °F 20.1 °F 69% 30.12 in 10.0 mi WSW 3.5 mph - N/A   Clear
7:15 PM 28.8 °F - 20.1 °F 70% 30.12 in 10.0 mi Calm Calm - N/A   Clear
7:35 PM 28.4 °F 22.2 °F 19.8 °F 70% 30.12 in 10.0 mi West 5.8 mph - N/A   Clear
7:55 PM 25.2 °F 20.9 °F 17.4 °F 72% 30.12 in 10.0 mi WNW 3.5 mph - N/A   Clear
8:15 PM 22.5 °F 16.3 °F 16.9 °F 79% 30.12 in 10.0 mi NNW 4.6 mph - N/A   Clear
8:35 PM 22.5 °F 16.3 °F 16.7 °F 79% 30.12 in 10.0 mi NW 4.6 mph - N/A   Clear
8:55 PM 23.7 °F - 17.8 °F 78% 30.12 in 10.0 mi Calm Calm - N/A   Clear
9:15 PM 20.8 °F 16.0 °F 16.0 °F 81% 30.12 in 10.0 mi WNW 3.5 mph - N/A   Clear
9:35 PM 21.2 °F 16.4 °F 16.3 °F 82% 30.11 in 10.0 mi West 3.5 mph - N/A   Clear
9:55 PM 21.9 °F 17.2 °F 16.5 °F 80% 30.12 in 10.0 mi WNW 3.5 mph - N/A   Clear
10:15 PM 21.7 °F 17.0 °F 17.1 °F 82% 30.11 in 10.0 mi WNW 3.5 mph - N/A   Clear
10:35 PM 21.0 °F 16.2 °F 15.8 °F 80% 30.11 in 10.0 mi NW 3.5 mph - N/A   Clear
10:55 PM 21.0 °F 16.2 °F 16.3 °F 82% 30.11 in 10.0 mi NW 3.5 mph - N/A   Scattered Clouds
11:15 PM 22.1 °F 15.9 °F 17.4 °F 82% 30.11 in 10.0 mi WNW 4.6 mph - N/A   Mostly Cloudy
11:35 PM 23.4 °F 17.4 °F 19.0 °F 84% 30.10 in 10.0 mi WNW 4.6 mph - N/A   Overcast
11:55 PM 25.2 °F - 20.8 °F 84% 30.09 in 10.0 mi Calm Calm - N/A   Overcast